sat.trackr.live / text

‹ back to catalog

STARLINK-31809

NORAD 59743 · 2024-090P

PAYLOAD ACTIVE UNKNOWN

§ Identity

Operator
Country
US
Launch date
2024-05-13
Launch site
AFETR
Launch vehicle
Mass (kg)
RCS (m²)

Purposes: comms

External: N2YO · Heavens-Above · Gunter

§ Orbital elements

Epoch: 2026-05-24T08:37:00.430464Z

Period
94.27 min
Inclination
43.0023°
Eccentricity
0.0001113
Mean motion
15.27575513 rev/d
Perigee alt
482.3 km
Apogee alt
483.8 km
Semi-major
6,861.2 km
B*
3.2382e-5
RAAN
109.1597°
Arg perigee
284.0758°
Mean anomaly
75.9970°
Rev number
11,509

§ Raw data

STARLINK-318091 59743U 24090P   26144.35903276  .00000629  00000+0  32382-4 0  99932 59743  43.0023 109.1597 0001113 284.0758  75.9970 15.27575513115098

JSON: /api/v1/satellites/59743 · /tle

For live sub-satellite position, see the globe view (requires WebGL).

§ Visibility from observer

Set your observer location to see the next 7 days of passes ≥ 10°. The values pass through the URL so the page stays shareable.

No JS? Fill the form by hand. The geolocation button needs JavaScript.